K3GM Weather Reports


Display with metric or nautical units.
time (UTC)temp
F
wind
direction
speed
MPH
gust
MPH
rain 1hr
in
rain 24hr
in
rain mn
in
humidity
%
barometer
mb
20260509070042 57 0 0.0 4.0 0.00 0.00 0.00 65 1012.6
20260509064535 58 0 0.0 3.0 0.00 0.00 0.00 65 1012.9
20260509063056 58 0 0.0 3.0 0.00 0.00 0.00 64 1012.9
20260509061550 58 0 0.0 2.0 0.00 0.00 0.00 56 1013.1
20260509060051 59 0 0.0 4.0 0.00 0.00 0.00 61 1013.0
20260509054535 59 0 0.0 1.0 0.00 0.00 0.00 55 1013.2
20260509053035 59 0 0.0 0.0 0.00 0.00 0.00 55 1013.3
20260509051535 59 0 0.0 1.0 0.00 0.00 0.00 61 1013.5
20260509050034 59 0 0.0 0.0 0.00 0.00 0.00 60 1013.4
20260509044536 60 0 0.0 1.0 0.00 0.00 0.00 51 1013.3
20260509043036 60 0 0.0 1.0 0.00 0.00 0.00 57 1013.3
20260509041535 60 0 0.0 0.0 0.00 0.00 0.00 57 1013.2
20260509040036 60 0 0.0 1.0 0.00 0.00 0.00 56 1013.3
20260509034536 61 0 0.0 2.0 0.00 0.00 0.00 48 1013.3
20260509033036 61 0 0.0 0.0 0.00 0.00 0.00 54 1013.2
20260509031538 61 0 0.0 0.0 0.00 0.00 0.00 54 1013.1
20260509030040 61 0 0.0 0.0 0.00 0.00 0.00 53 1013.1
20260509024537 62 0 0.0 1.0 0.00 0.00 0.00 53 1013.2
20260509023032 62 0 0.0 0.0 0.00 0.00 0.00 53 1013.3
20260509021531 62 0 0.0 1.0 0.00 0.00 0.00 52 1013.3
20260509020048 63 0 0.0 3.0 0.00 0.00 0.00 51 1013.2
20260509014545 62 0 0.0 1.0 0.00 0.00 0.00 52 1013.1
20260509013039 62 0 0.0 0.0 0.00 0.00 0.00 47 1012.9
20260509011531 62 0 0.0 0.0 0.00 0.00 0.00 44 1012.8
20260509010036 62 0 0.0 0.0 0.00 0.00 0.00 50 1012.4
20260509004536 62 0 0.0 0.0 0.00 0.00 0.00 48 1012.1
20260509003041 63 0 0.0 0.0 0.00 0.00 0.00 46 1011.9
20260509001534 63 0 0.0 0.0 0.00 0.00 0.00 44 1012.0
20260509000039 63 0 0.0 0.0 0.00 0.00 0.00 38 1011.7
20260508234536 64 0 0.0 0.0 0.00 0.00 0.00 42 1011.7
20260508233036 65 0 0.0 3.0 0.00 0.00 0.00 35 1011.5
20260508231535 65 0 0.0 4.0 0.00 0.00 0.00 42 1011.4
20260508230035 65 0 0.0 5.0 0.00 0.00 0.00 39 1011.2
20260508224535 65 0 0.0 3.0 0.00 0.00 0.00 33 1011.1
20260508223040 66 0 0.0 1.0 0.00 0.00 0.00 32 1011.2
20260508221535 66 343 0.0 4.0 0.00 0.00 0.00 37 1011.1
20260508220035 66 0 0.0 4.0 0.00 0.00 0.00 40 1011.3
20260508214534 66 329 2.0 6.0 0.00 0.00 0.00 30 1011.3
20260508213032 67 0 3.0 10.0 0.00 0.00 0.00 29 1011.2
20260508211535 66 320 1.0 9.0 0.00 0.00 0.00 33 1011.5
20260508210036 65 0 0.0 5.0 0.00 0.00 0.00 37 1011.2
20260508204535 66 0 1.0 10.0 0.00 0.00 0.00 35 1011.3
20260508203040 65 0 0.0 3.0 0.00 0.00 0.00 36 1011.6
20260508201539 65 302 1.0 7.0 0.00 0.00 0.00 35 1011.6
20260508200035 65 219 0.0 5.0 0.00 0.00 0.00 33 1011.6
20260508194533 66 42 2.0 8.0 0.00 0.00 0.00 36 1011.7
20260508193033 66 0 0.0 6.0 0.00 0.00 0.00 39 1011.8
20260508191539 66 52 1.0 6.0 0.00 0.00 0.00 33 1011.7
20260508190037 67 304 1.0 9.0 0.00 0.00 0.00 33 1011.7
20260508184536 68 77 0.0 8.0 0.00 0.00 0.00 34 1011.9
20260508183037 68 0 1.0 6.0 0.00 0.00 0.00 33 1012.0
20260508181544 67 0 0.0 4.0 0.00 0.00 0.00 41 1012.2
20260508180035 65 0 0.0 8.0 0.00 0.00 0.00 30 1012.5
20260508174539 66 0 1.0 10.0 0.00 0.00 0.00 32 1012.6
20260508173042 67 0 2.0 8.0 0.00 0.00 0.00 30 1012.6
20260508171536 67 335 1.0 7.0 0.00 0.00 0.00 32 1012.6
20260508170035 66 0 1.0 7.0 0.00 0.00 0.00 33 1012.8
20260508164535 65 19 1.0 9.0 0.00 0.00 0.00 31 1013.3
20260508163036 64 0 0.0 10.0 0.00 0.00 0.00 34 1013.6
20260508161534 62 0 0.0 10.0 0.00 0.00 0.00 40 1013.8
20260508160036 63 336 1.0 6.0 0.00 0.00 0.00 37 1014.0
20260508154536 63 0 0.0 5.0 0.00 0.00 0.00 34 1014.3
20260508153035 63 0 0.0 10.0 0.00 0.00 0.00 37 1014.2
20260508151541 62 18 0.0 4.0 0.00 0.00 0.00 40 1014.2
20260508150036 62 325 0.0 5.0 0.00 0.00 0.00 42 1014.5
20260508144535 62 0 0.0 4.0 0.00 0.00 0.00 37 1014.3
20260508143035 60 0 0.0 4.0 0.00 0.00 0.00 37 1014.5
20260508141605 60 38 0.0 4.0 0.00 0.00 0.00 40 1014.8
20260508140037 58 0 0.0 3.0 0.00 0.00 0.00 39 1014.9
20260508134548 57 0 0.0 4.0 0.00 0.00 0.00 42 1014.7
20260508133035 57 0 0.0 6.0 0.00 0.00 0.00 38 1014.7
20260508131535 56 0 0.0 6.0 0.00 0.00 0.00 40 1014.8
20260508130038 55 0 1.0 8.0 0.00 0.00 0.00 44 1014.9
20260508124535 55 292 1.0 6.0 0.00 0.00 0.00 47 1015.0
20260508123046 54 0 0.0 5.0 0.00 0.00 0.00 54 1015.0
20260508121535 52 0 0.0 4.0 0.00 0.00 0.00 58 1014.7
20260508120035 51 328 0.0 3.0 0.00 0.00 0.00 62 1014.6
20260508114537 51 0 0.0 2.0 0.00 0.00 0.00 71 1014.5
20260508113048 50 0 0.0 6.0 0.00 0.00 0.00 74 1014.6
20260508111534 48 0 1.0 7.0 0.00 0.00 0.00 71 1014.4
20260508110032 47 0 0.0 0.0 0.00 0.00 0.00 82 1014.4
20260508104536 46 0 0.0 0.0 0.00 0.00 0.00 83 1014.2
20260508103038 45 0 0.0 0.0 0.00 0.00 0.00 83 1014.2
20260508101534 46 0 0.0 0.0 0.00 0.00 0.00 81 1014.1
20260508100036 46 0 0.0 0.0 0.00 0.00 0.00 79 1013.7
20260508094534 47 0 0.0 1.0 0.00 0.02 0.00 77 1013.7
20260508093041 48 0 0.0 1.0 0.00 0.02 0.00 75 1013.6
20260508091549 48 0 0.0 0.0 0.00 0.02 0.00 74 1013.6
20260508090038 49 0 0.0 3.0 0.00 0.02 0.00 72 1013.3
20260508084535 49 321 0.0 7.0 0.00 0.02 0.00 71 1013.2
20260508083040 50 303 1.0 10.0 0.00 0.02 0.00 70 1013.0
20260508081532 51 300 2.0 11.0 0.00 0.02 0.00 69 1012.7
20260508080038 51 0 4.0 13.0 0.00 0.02 0.00 67 1012.5
20260508074546 52 312 4.0 12.0 0.00 0.02 0.00 66 1012.1
20260508073034 52 319 1.0 8.0 0.00 0.02 0.00 58 1011.7
20260508071536 53 317 5.0 12.0 0.00 0.02 0.00 63 1011.3